QPF
0.00 0.00 0.00 0.00 0.00 0.00 0.00 0.00 0.00 0.00 0.00 0.00 0.00 0.00 0.00 0.00 0.00 0.00 0.00 0.00 0.00 0.00 0.00 0.00 0.00 0.00 0.00 0.00 0.00 0.00 0.00 0.00 0.00 0.00 0.00 0.00 0.00 0.00 0.00 0.00 0.00 0.00 0.00 0.00
0.00 0.00 0.00 0.00 0.00 0.00 0.00 0.00 0.00 0.00 0.00 0.00 0.00 0.00 0.00 0.00 0.00 0.00 0.00 0.00 0.00 0.00 0.00 0.00 0.00 0.00 0.00 0.00 0.00 0.00 0.00 0.00 0.00 0.00 0.00 0.00 0.00 0.00 0.00 0.00 0.00 0.00 0.00 0.00
0.00 0.00 0.00 0.00 0.00 0.00 0.00 0.00 0.00 0.00 0.00 0.00 0.00 0.00 0.00 0.00 0.00 0.00 0.00 0.00 0.00 0.00 0.00 0.00 0.00 0.00 0.00 0.00 0.00 0.00 0.00 0.00 0.00 0.00 0.00 0.00 0.00 0.00 0.00 0.00 0.00 0.00 0.00 0.00
0.00 0.00 0.00 0.00 0.00 0.00 0.00 0.00 0.00 0.00 0.00 0.00 0.00 0.00 0.00 0.00 0.00 0.00 0.00 0.00 0.00 0.00 0.00 0.00 0.00 0.00 0.00 0.00 0.00 0.00 0.00 0.00 0.00 0.00 0.00 0.00 0.00 0.00 0.00 0.00 0.00 0.00 0.00 0.00
0.00 0.00 0.00 0.00 0.00 0.00 0.00 0.00 0.00 0.00 0.00 0.00 0.00 0.00 0.00 0.00 0.00 0.00 0.00 0.00 0.00 0.00 0.00 0.00 0.00 0.00 0.00 0.00 0.00 0.00 0.00 0.00 0.00 0.00 0.00 0.00 0.00 0.00 0.00 0.00 0.00 0.00 0.00 0.00
0.00 0.00 0.00 0.00 0.00 0.00 0.00 0.00 0.00 0.00 0.00 0.00 0.00 0.00 0.00 0.00 0.00 0.00 0.00 0.00 0.00 0.00 0.00 0.00 0.00 0.00 0.00 0.00 0.00 0.00 0.00 0.00 0.00 0.00 0.00 0.00 0.00 0.00 0.00 0.00 0.00 0.00 0.00 0.00
0.00 0.00 0.00 0.00 0.00 0.00 0.00 0.00 0.00 0.00 0.00 0.00 0.00 0.00 0.00 0.00 0.00 0.00 0.00 0.00 0.00 0.00 0.00 0.00 0.00 0.00 0.00 0.00 0.00 0.00 0.00 0.00 0.00 0.00 0.00 0.00 0.00 0.00 0.00 0.00 0.00 0.00 0.00 0.00
0.00 0.00 0.00 0.00 0.00 0.00 0.00 0.00 0.00 0.00 0.00 0.00 0.00 0.00 0.00 0.00 0.00 0.00 0.00 0.00 0.00 0.00 0.00 0.00 0.00 0.00 0.00 0.00 0.00 0.00 0.00 0.00 0.00 0.00 0.00 0.00 0.00 0.00 0.00 0.00 0.00 0.00 0.00 0.00
0.00 0.00 0.00 0.00 0.00 0.00 0.00 0.00 0.00 0.00 0.00 0.00 0.00 0.00 0.00 0.00 0.00 0.00 0.00 0.00 0.00 0.00 0.00 0.00 0.00 0.00 0.00 0.00 0.00 0.00 0.00 0.00 0.00 0.00 0.00 0.00 0.00 0.00 0.00 0.00 0.00 0.00 0.00 0.00
0.00 0.00 0.00 0.00 0.00 0.00 0.00 0.00 0.00 0.00 0.00 0.00 0.00 0.00 0.00 0.00 0.00 0.00 0.00 0.00 0.00 0.00 0.00 0.00 0.00 0.00 0.00 0.00 0.00 0.00 0.00 0.00 0.00 0.00 0.00 0.00 0.00 0.00 0.00 0.00 0.00 0.00 0.00 0.00
0.00 0.00 0.00 0.00 0.00 0.00 0.00 0.00 0.00 0.00 0.00 0.00 0.00 0.00 0.00 0.00 0.00 0.00 0.00 0.00 0.00 0.00 0.00 0.00 0.00 0.00 0.00 0.00 0.00 0.00 0.00 0.00 0.00 0.00 0.00 0.00 0.00 0.00 0.00 0.00 0.00 0.00 0.00 0.00
0.00 0.00 0.00 0.00 0.00 0.00 0.00 0.00 0.00 0.00 0.00 0.00 0.00 0.00 0.00 0.00 0.00 0.00 0.00 0.00 0.00 0.00 0.00 0.00 0.00 0.00 0.00 0.00 0.00 0.00 0.00 0.00 0.00 0.00 0.00 0.00 0.00 0.00 0.00 0.00 0.00 0.00 0.00 0.00
0.00 0.00 0.00 0.00 0.00 0.00 0.00 0.00 0.00 0.00 0.00 0.00 0.00 0.00 0.00 0.00 0.00 0.00 0.00 0.00 0.00 0.00 0.00 0.00 0.00 0.00 0.00 0.00 0.00 0.00 0.00 0.00 0.00 0.00 0.00 0.00 0.00 0.00 0.00 0.00 0.00 0.00 0.00 0.00
0.00 0.00 0.00 0.00 0.00 0.00 0.00 0.00 0.00 0.00 0.00 0.00 0.00 0.00 0.00 0.00 0.00 0.00 0.00 0.00 0.00 0.00 0.00 0.00 0.00 0.00 0.00 0.00 0.00 0.00 0.00 0.00 0.00 0.00 0.00 0.00 0.00 0.00 0.00 0.00 0.00 0.00 0.00 0.00
0.00 0.00 0.00 0.00 0.00 0.00 0.00 0.00 0.00 0.00 0.00 0.00 0.00 0.00 0.00 0.00 0.00 0.00 0.00 0.00 0.00 0.00 0.00 0.00 0.00 0.00 0.00 0.00 0.00 0.00 0.00 0.00 0.00 0.00 0.00 0.00 0.00 0.00 0.00 0.00 0.00 0.00 0.00 0.00
0.00 0.00 0.00 0.00 0.00 0.00 0.00 0.00 0.00 0.00 0.00 0.00 0.00 0.00 0.00 0.00 0.00 0.00 0.00 0.00 0.00 0.00 0.00 0.00 0.00 0.00 0.00 0.00 0.00 0.00 0.00 0.00 0.00 0.00 0.00 0.00 0.00 0.00 0.00 0.00 0.00 0.00 0.00 0.00
0.00 0.00 0.00 0.00 0.00 0.00 0.00 0.00 0.00 0.00 0.00 0.00 0.00 0.00 0.00 0.00 0.00 0.00 0.00 0.00 0.00 0.00 0.00 0.00 0.00 0.00 0.00 0.00 0.00 0.00 0.00 0.00 0.00 0.00 0.00 0.00 0.00 0.00 0.00 0.00 0.00 0.00 0.00 0.00
0.00 0.00 0.00 0.00 0.00 0.00 0.00 0.00 0.00 0.00 0.00 0.00 0.00 0.00 0.00 0.00 0.00 0.00 0.00 0.00 0.00 0.00 0.00 0.00 0.00 0.00 0.00 0.00 0.00 0.00 0.00 0.00 0.00 0.00 0.00 0.00 0.00 0.00 0.00 0.00 0.00 0.00 0.00 0.00
0.00 0.00 0.00 0.00 0.00 0.00 0.00 0.00 0.00 0.00 0.00 0.00 0.00 0.00 0.00 0.00 0.00 0.00 0.00 0.00 0.00 0.00 0.00 0.00 0.00 0.00 0.00 0.00 0.00 0.00 0.00 0.00 0.00 0.00 0.00 0.00 0.00 0.00 0.00 0.00 0.00 0.00 0.00 0.00
0.00 0.00 0.00 0.00 0.00 0.00 0.00 0.00 0.00 0.00 0.00 0.00 0.00 0.00 0.00 0.00 0.00 0.00 0.00 0.00 0.00 0.00 0.00 0.00 0.00 0.00 0.00 0.00 0.00 0.00 0.00 0.00 0.00 0.00 0.00 0.00 0.00 0.00 0.00 0.00 0.00 0.00 0.00 0.00
0.00 0.00 0.00 0.00 0.00 0.00 0.00 0.00 0.00 0.00 0.00 0.00 0.00 0.00 0.00 0.00 0.00 0.00 0.00 0.00 0.00 0.00 0.00 0.00 0.00 0.00 0.00 0.00 0.00 0.00 0.00 0.00 0.00 0.00 0.00 0.00 0.00 0.00 0.00 0.00 0.00 0.00 0.00 0.00
0.00 0.00 0.00 0.00 0.00 0.00 0.00 0.00 0.00 0.00 0.00 0.00 0.00 0.00 0.00 0.00 0.00 0.00 0.00 0.00 0.00 0.00 0.00 0.00 0.00 0.00 0.00 0.00 0.00 0.00 0.00 0.00 0.00 0.00 0.00 0.00 0.00 0.00 0.00 0.00 0.00 0.00 0.00 0.00
0.00 0.00 0.00 0.00 0.00 0.00 0.00 0.00 0.00 0.00 0.00 0.00 0.00 0.00 0.00 0.00 0.00 0.00 0.00 0.00 0.00 0.00 0.00 0.00 0.00 0.00 0.00 0.00 0.00 0.00 0.00 0.00 0.00 0.00 0.00 0.00 0.00 0.00 0.00 0.00 0.00 0.00 0.00 0.00
0.00 0.00 0.00 0.00 0.00 0.00 0.00 0.00 0.00 0.00 0.00 0.00 0.00 0.00 0.00 0.00 0.00 0.00 0.00 0.00 0.00 0.00 0.00 0.00 0.00 0.00 0.00 0.00 0.00 0.00 0.00 0.00 0.00 0.00 0.00 0.00 0.00 0.00 0.00 0.00 0.00 0.00 0.00 0.00
0.00 0.00 0.00 0.00 0.00 0.00 0.00 0.00 0.00 0.00 0.00 0.00 0.00 0.00 0.00 0.00 0.00 0.00 0.00 0.00 0.00 0.00 0.00 0.00 0.00 0.00 0.00 0.00 0.00 0.00 0.00 0.00 0.00 0.00 0.00 0.00 0.00 0.00 0.00 0.00 0.00 0.00 0.00 0.00
0.00 0.00 0.00 0.00 0.00 0.00 0.00 0.00 0.00 0.00 0.00 0.00 0.00 0.00 0.00 0.00 0.00 0.00 0.00 0.00 0.00 0.00 0.00 0.00 0.00 0.00 0.00 0.00 0.00 0.00 0.00 0.00 0.00 0.00 0.00 0.00 0.00 0.00 0.00 0.00 0.00 0.00 0.00 0.00
0.00 0.00 0.00 0.00 0.00 0.00 0.00 0.00 0.00 0.00 0.00 0.00 0.00 0.00 0.00 0.00 0.00 0.00 0.00 0.00 0.00 0.00 0.00 0.00 0.00 0.00 0.00 0.00 0.00 0.00 0.00 0.00 0.00 0.00 0.00 0.00 0.00 0.00 0.00 0.00 0.00 0.00 0.00 0.00
MSLP
1018.23 1017.78 1017.18 1016.62 1016.00 1015.67 1015.83 1014.92 1014.23 1013.99 1014.28 1014.42 1014.17 1014.42 1014.39 1014.53 1014.55 1014.49 1014.12 1013.94 1013.61 1013.53 1013.50 1013.51 1013.68 1014.33 1014.87 1015.11 1014.91 1014.64 1014.81 1015.55 1016.73 1016.89 1016.77 1016.63 1016.58 1016.46 1016.54 1017.25 1017.86 1017.68 1017.52 1016.93
1018.25 1017.88 1017.39 1016.65 1016.04 1015.86 1015.76 1014.72 1013.85 1013.62 1013.60 1013.85 1014.05 1014.53 1014.63 1014.52 1014.40 1014.23 1013.99 1013.83 1013.75 1013.82 1013.83 1014.11 1014.27 1014.89 1015.33 1015.29 1015.29 1015.58 1015.37 1015.58 1016.63 1017.30 1017.41 1017.08 1016.98 1016.74 1016.82 1017.18 1017.71 1017.68 1017.51 1016.89
1018.32 1017.93 1017.57 1017.03 1016.54 1016.34 1016.18 1015.11 1014.05 1013.49 1013.25 1013.38 1013.43 1013.77 1014.11 1014.42 1014.61 1014.37 1014.14 1013.92 1013.81 1013.95 1014.05 1014.13 1014.58 1015.19 1015.69 1015.68 1015.73 1015.78 1015.77 1015.79 1016.30 1016.66 1016.65 1016.45 1016.85 1016.68 1016.94 1017.39 1017.90 1017.33 1016.76 1016.60
1018.43 1018.04 1017.63 1017.19 1016.78 1016.47 1016.36 1015.04 1014.77 1014.48 1013.86 1013.73 1013.58 1013.75 1013.87 1014.08 1014.32 1014.45 1014.31 1014.12 1014.01 1014.00 1014.29 1014.48 1014.80 1015.31 1015.81 1015.98 1016.04 1015.93 1016.05 1016.47 1016.85 1016.90 1016.92 1016.89 1016.77 1016.82 1017.07 1017.34 1017.10 1016.98 1016.65 1016.32
1018.57 1018.16 1017.75 1017.29 1016.84 1016.49 1016.29 1015.76 1015.16 1014.73 1014.30 1014.09 1013.76 1013.80 1013.89 1014.07 1014.45 1014.54 1014.40 1014.33 1014.58 1014.50 1014.80 1015.16 1015.05 1015.16 1015.42 1015.55 1016.18 1016.20 1016.44 1017.12 1017.48 1017.55 1017.52 1017.52 1017.29 1016.95 1016.92 1017.08 1017.06 1016.80 1016.52 1016.25
1018.69 1018.33 1017.93 1017.46 1017.04 1016.63 1016.22 1015.85 1015.41 1015.33 1014.57 1014.06 1013.76 1013.89 1014.04 1014.18 1014.40 1015.00 1014.90 1014.75 1014.77 1015.27 1015.75 1015.62 1015.47 1015.50 1015.75 1015.91 1016.31 1016.57 1016.90 1017.53 1018.10 1018.24 1017.95 1017.70 1017.24 1016.08 1016.14 1016.16 1016.03 1016.24 1016.43 1015.94
1018.78 1018.46 1018.17 1017.75 1017.43 1017.29 1017.04 1016.81 1016.30 1015.55 1014.86 1014.37 1014.05 1014.18 1014.27 1014.54 1014.78 1014.93 1015.36 1015.33 1015.37 1016.27 1016.10 1016.01 1015.95 1016.19 1016.42 1016.68 1016.96 1017.06 1017.52 1017.97 1018.49 1018.80 1018.50 1017.53 1015.65 1015.29 1015.19 1015.29 1015.47 1015.60 1015.74 1015.89
1018.77 1018.53 1018.34 1018.06 1017.74 1017.46 1017.17 1017.13 1017.01 1016.20 1015.46 1014.83 1014.69 1014.63 1014.67 1015.09 1015.45 1015.72 1015.97 1016.51 1016.51 1016.46 1016.51 1016.50 1016.62 1016.80 1017.01 1017.34 1017.82 1017.86 1018.02 1018.23 1018.82 1019.02 1018.30 1016.49 1015.71 1015.36 1015.12 1015.14 1015.66 1015.58 1015.80 1016.09
1018.65 1018.56 1018.42 1018.25 1018.00 1017.75 1017.48 1017.63 1017.62 1016.99 1016.34 1015.73 1015.26 1015.12 1015.18 1015.31 1015.64 1016.31 1016.95 1017.29 1017.01 1017.01 1016.85 1016.81 1016.80 1016.73 1016.71 1017.62 1018.24 1018.52 1018.63 1018.73 1019.18 1019.16 1018.47 1016.77 1015.65 1015.35 1015.17 1015.24 1016.00 1016.00 1016.13 1016.74
1018.40 1018.50 1018.41 1018.32 1018.22 1018.05 1018.00 1017.88 1017.85 1017.59 1016.91 1016.35 1016.07 1015.99 1016.01 1015.78 1015.96 1016.51 1017.05 1017.50 1017.64 1017.60 1017.37 1017.27 1017.00 1016.81 1016.85 1017.33 1017.77 1018.60 1018.80 1019.05 1019.11 1018.96 1018.30 1016.39 1015.38 1015.39 1015.42 1016.08 1016.65 1016.41 1016.83 1017.36
1018.02 1018.28 1018.39 1018.29 1018.28 1018.22 1018.18 1018.08 1018.00 1018.04 1017.54 1017.04 1016.90 1016.78 1016.82 1016.70 1016.65 1016.80 1017.37 1017.66 1017.72 1017.87 1017.81 1017.41 1016.98 1017.05 1016.97 1017.01 1016.83 1017.34 1017.65 1018.21 1018.42 1018.43 1017.97 1016.48 1015.40 1015.98 1016.21 1016.25 1016.51 1016.95 1017.46 1017.94
1017.84 1017.95 1018.13 1018.29 1018.25 1018.25 1018.04 1018.14 1018.14 1018.17 1018.13 1017.94 1017.73 1017.71 1017.80 1017.79 1017.62 1017.33 1017.43 1017.46 1017.21 1017.23 1017.55 1017.47 1017.25 1017.18 1017.15 1017.01 1016.99 1016.78 1017.21 1016.71 1016.89 1016.74 1016.24 1015.70 1015.77 1016.18 1016.45 1016.69 1017.09 1017.52 1017.87 1018.23
1017.70 1017.70 1017.85 1018.10 1018.24 1018.21 1018.17 1018.16 1018.42 1018.19 1018.05 1018.00 1018.00 1018.06 1018.13 1018.08 1018.10 1018.02 1017.76 1017.64 1017.50 1017.56 1017.74 1017.70 1017.61 1017.56 1017.10 1017.30 1017.07 1016.76 1016.63 1016.31 1016.59 1016.36 1015.86 1015.95 1016.24 1016.60 1016.91 1017.22 1017.47 1017.80 1018.09 1018.30
1017.37 1017.51 1017.55 1017.85 1018.15 1018.22 1018.13 1018.18 1018.46 1018.62 1018.39 1018.29 1018.35 1018.11 1018.27 1018.54 1018.28 1018.18 1018.09 1017.91 1017.87 1017.80 1017.90 1017.88 1017.93 1017.85 1017.45 1017.37 1017.19 1016.97 1016.53 1016.51 1016.28 1016.10 1016.02 1016.30 1016.56 1016.83 1017.22 1017.57 1017.80 1017.99 1018.20 1018.40
1016.84 1017.17 1017.30 1017.60 1018.05 1018.31 1018.14 1018.28 1018.58 1018.68 1019.00 1018.75 1018.45 1018.44 1018.74 1018.58 1018.57 1018.29 1018.24 1018.21 1018.25 1018.34 1018.49 1018.55 1018.37 1017.87 1017.91 1017.58 1017.55 1016.44 1015.48 1015.29 1015.66 1015.65 1015.32 1015.94 1016.66 1017.27 1017.66 1018.00 1018.25 1018.50 1018.67 1018.82
1016.43 1016.78 1017.10 1017.39 1017.87 1018.18 1018.31 1018.61 1018.86 1018.75 1018.71 1018.84 1018.83 1019.11 1018.94 1018.85 1018.65 1018.75 1018.54 1018.50 1018.59 1018.50 1018.62 1018.67 1018.34 1018.37 1018.47 1017.95 1017.00 1014.79 1014.52 1014.75 1014.82 1015.26 1015.58 1015.88 1016.68 1017.35 1017.64 1017.96 1018.27 1018.52 1018.78 1018.88
1015.97 1016.48 1016.91 1017.30 1017.73 1017.99 1018.58 1018.79 1018.91 1018.77 1018.82 1018.85 1019.04 1019.24 1019.48 1019.44 1019.26 1019.31 1019.33 1019.12 1019.04 1019.00 1018.94 1018.94 1018.84 1018.89 1018.68 1018.13 1016.87 1015.03 1014.80 1015.18 1015.59 1015.82 1016.24 1017.11 1017.32 1017.56 1017.77 1018.01 1018.33 1018.50 1018.61 1018.60
1015.46 1016.11 1016.71 1017.34 1017.89 1018.34 1018.64 1018.67 1018.67 1018.73 1018.87 1019.05 1019.33 1019.33 1019.55 1019.49 1019.57 1019.81 1019.83 1019.73 1019.69 1019.66 1019.47 1019.38 1019.18 1019.16 1018.77 1017.61 1015.28 1015.14 1015.12 1015.41 1015.97 1016.43 1016.57 1016.67 1017.39 1017.95 1018.29 1018.28 1018.40 1018.46 1018.49 1018.58
1015.29 1015.75 1016.81 1017.64 1017.96 1018.32 1018.35 1018.50 1018.72 1018.81 1019.25 1019.18 1019.36 1019.38 1019.48 1019.62 1019.67 1019.83 1020.04 1020.00 1020.17 1020.21 1020.01 1019.77 1019.67 1018.85 1017.76 1015.57 1015.22 1015.10 1015.37 1015.81 1016.41 1017.00 1017.39 1017.70 1018.06 1018.37 1018.62 1018.78 1018.93 1019.21 1019.34 1019.28
1015.17 1015.95 1016.84 1017.71 1017.95 1018.16 1018.47 1018.78 1018.97 1018.98 1018.90 1019.13 1018.92 1018.76 1019.49 1019.56 1019.72 1019.94 1020.17 1020.20 1020.19 1020.36 1020.12 1020.05 1019.78 1018.21 1016.14 1015.57 1015.34 1015.24 1015.53 1016.13 1016.71 1017.37 1018.05 1018.35 1018.60 1018.69 1018.86 1019.02 1019.15 1019.30 1019.38 1019.20
1014.59 1015.76 1016.91 1018.14 1018.21 1018.38 1018.53 1018.74 1018.98 1018.72 1018.83 1018.52 1018.41 1018.46 1018.98 1019.50 1019.42 1019.50 1019.71 1020.00 1020.21 1020.38 1020.19 1020.08 1019.16 1017.86 1016.40 1016.04 1016.00 1015.93 1016.17 1016.69 1017.35 1017.57 1018.01 1018.37 1018.70 1019.01 1019.19 1019.14 1018.97 1018.87 1018.83 1018.73
1013.60 1015.48 1016.99 1017.86 1018.22 1018.54 1018.36 1018.29 1018.29 1018.19 1017.54 1017.61 1018.02 1018.37 1018.41 1019.09 1019.04 1019.05 1019.81 1019.93 1020.44 1020.18 1020.18 1019.95 1018.82 1017.20 1016.71 1016.69 1016.78 1016.88 1017.00 1017.28 1017.73 1018.05 1018.39 1018.59 1018.86 1018.99 1019.02 1018.93 1018.75 1018.55 1018.43 1018.31
1013.96 1015.51 1016.42 1016.58 1017.41 1017.36 1016.93 1016.49 1016.90 1016.83 1016.41 1017.24 1017.70 1018.21 1018.53 1019.17 1019.15 1019.17 1019.48 1019.83 1020.10 1020.09 1020.12 1019.09 1018.04 1017.30 1016.98 1017.04 1017.19 1017.49 1017.60 1017.67 1017.87 1018.30 1018.62 1018.78 1018.91 1018.99 1019.01 1018.83 1018.39 1018.16 1017.94 1017.59
1013.41 1014.45 1015.24 1015.04 1015.26 1014.35 1013.48 1013.45 1013.89 1014.66 1015.29 1016.36 1017.16 1017.92 1018.11 1018.57 1018.97 1019.11 1019.51 1019.66 1019.79 1019.89 1019.50 1018.36 1017.53 1017.44 1017.54 1017.59 1017.73 1017.79 1018.08 1018.04 1018.26 1018.38 1018.52 1018.71 1018.79 1018.71 1018.54 1018.38 1018.11 1018.01 1017.62 1017.06
1012.00 1012.54 1012.34 1012.44 1012.10 1012.39 1012.53 1012.81 1013.76 1014.70 1015.15 1015.82 1017.10 1017.66 1017.95 1018.53 1018.73 1018.90 1019.11 1019.65 1019.18 1018.61 1018.18 1017.72 1017.61 1017.48 1017.63 1017.87 1017.94 1018.14 1018.32 1018.32 1018.37 1018.21 1018.21 1018.24 1018.22 1018.23 1018.17 1018.02 1017.77 1017.38 1016.88 1016.54
1010.41 1010.62 1010.53 1010.77 1011.71 1012.67 1012.73 1013.24 1014.02 1014.29 1015.07 1015.62 1016.25 1017.14 1017.64 1017.97 1017.84 1018.19 1018.10 1018.41 1017.77 1017.29 1017.61 1017.62 1017.74 1017.85 1017.95 1018.08 1018.23 1018.22 1018.17 1018.19 1018.19 1018.15 1018.00 1017.87 1017.88 1017.82 1017.58 1017.26 1016.99 1016.35 1016.06 1015.85
1009.03 1009.40 1009.57 1009.62 1010.24 1011.05 1011.82 1012.41 1013.12 1013.56 1014.30 1015.10 1015.66 1016.44 1016.73 1017.24 1017.25 1017.24 1016.96 1016.99 1016.66 1016.75 1017.34 1017.46 1017.54 1017.67 1017.78 1018.01 1018.08 1018.09 1018.05 1018.00 1017.90 1017.85 1017.70 1017.46 1017.27 1017.25 1017.05 1016.59 1015.85 1015.41 1015.16 1014.78
Thickness
5577 5577 5578 5578 5580 5579 5575 5582 5582 5575 5568 5568 5563 5546 5549 5543 5538 5535 5534 5533 5536 5536 5538 5538 5541 5537 5537 5544 5551 5558 5565 5562 5540 5566 5572 5578 5585 5595 5603 5584 5593 5595 5591 5592
5578 5577 5577 5580 5581 5580 5580 5590 5590 5582 5578 5567 5558 5556 5551 5549 5544 5543 5540 5538 5539 5540 5538 5534 5538 5533 5539 5547 5548 5551 5562 5566 5536 5556 5566 5576 5579 5591 5596 5596 5590 5590 5579 5592
5577 5577 5576 5578 5579 5577 5577 5587 5582 5590 5588 5582 5576 5567 5560 5552 5547 5547 5546 5545 5546 5542 5541 5543 5538 5535 5539 5547 5550 5552 5561 5572 5570 5564 5576 5586 5581 5590 5591 5589 5561 5591 5594 5599
5575 5575 5576 5577 5578 5577 5577 5591 5584 5582 5581 5579 5579 5574 5570 5562 5556 5554 5554 5551 5551 5550 5543 5545 5543 5543 5542 5549 5550 5561 5564 5565 5556 5577 5580 5582 5588 5589 5587 5583 5589 5590 5601 5604
5571 5573 5574 5576 5578 5578 5580 5582 5585 5582 5584 5582 5581 5571 5573 5570 5561 5559 5560 5557 5554 5555 5548 5545 5550 5554 5557 5560 5557 5564 5566 5559 5564 5548 5573 5574 5575 5584 5590 5587 5589 5591 5593 5592
5568 5570 5572 5573 5575 5578 5584 5581 5582 5579 5579 5586 5585 5580 5578 5575 5572 5563 5564 5565 5565 5555 5549 5551 5554 5557 5557 5560 5563 5564 5567 5557 5551 5568 5573 5573 5567 5583 5588 5593 5597 5595 5585 5598
5564 5566 5568 5569 5570 5571 5572 5572 5574 5581 5585 5584 5585 5583 5582 5578 5575 5573 5568 5568 5568 5556 5559 5560 5559 5557 5559 5560 5559 5562 5565 5565 5550 5535 5565 5554 5596 5596 5597 5600 5603 5601 5602 5601
5559 5562 5563 5564 5566 5567 5570 5568 5568 5577 5580 5583 5581 5580 5580 5575 5572 5570 5569 5560 5561 5562 5562 5559 5556 5556 5559 5557 5554 5562 5561 5567 5555 5537 5562 5595 5592 5593 5596 5595 5594 5600 5598 5598
5553 5556 5559 5560 5561 5562 5564 5562 5561 5566 5573 5576 5579 5580 5579 5577 5574 5567 5559 5558 5560 5561 5562 5563 5567 5564 5576 5555 5551 5556 5560 5562 5554 5556 5566 5586 5594 5595 5599 5600 5581 5590 5589 5588
5548 5550 5553 5555 5556 5556 5556 5556 5556 5558 5568 5570 5571 5573 5573 5577 5576 5567 5562 5556 5556 5558 5558 5561 5564 5567 5572 5562 5562 5540 5545 5551 5542 5548 5557 5582 5594 5592 5595 5585 5587 5586 5584 5579
5544 5545 5546 5549 5550 5551 5551 5552 5551 5551 5560 5561 5561 5562 5568 5568 5569 5571 5559 5556 5554 5550 5555 5565 5570 5565 5562 5571 5578 5563 5557 5544 5544 5556 5562 5560 5589 5585 5584 5580 5580 5575 5570 5565
5537 5539 5540 5542 5544 5545 5547 5548 5546 5546 5547 5549 5549 5549 5548 5549 5552 5558 5559 5561 5566 5565 5560 5560 5561 5561 5558 5569 5572 5573 5560 5577 5572 5572 5575 5584 5583 5573 5571 5569 5566 5563 5558 5554
5528 5531 5532 5534 5536 5539 5541 5541 5539 5542 5546 5546 5544 5545 5543 5543 5543 5545 5555 5553 5555 5556 5548 5552 5554 5559 5562 5561 5561 5572 5569 5572 5564 5571 5577 5571 5570 5565 5561 5558 5555 5552 5549 5545
5520 5522 5525 5526 5527 5530 5533 5535 5533 5534 5539 5544 5540 5540 5538 5536 5538 5540 5541 5544 5544 5546 5544 5549 5550 5551 5554 5556 5557 5556 5559 5556 5561 5564 5570 5565 5564 5557 5551 5548 5546 5544 5540 5536
5514 5515 5518 5519 5519 5520 5524 5526 5526 5526 5528 5536 5538 5534 5530 5532 5532 5536 5537 5537 5540 5538 5536 5535 5537 5544 5539 5542 5537 5543 5555 5558 5552 5558 5567 5556 5549 5540 5540 5534 5530 5526 5523 5519
5506 5507 5509 5511 5510 5511 5513 5516 5515 5517 5519 5523 5526 5522 5525 5526 5528 5528 5531 5531 5531 5531 5532 5531 5536 5531 5527 5528 5542 5575 5566 5561 5560 5555 5549 5547 5538 5531 5528 5523 5519 5514 5509 5506
5497 5498 5499 5500 5501 5501 5502 5508 5504 5506 5509 5514 5514 5513 5513 5513 5516 5515 5516 5518 5519 5521 5524 5521 5526 5522 5518 5524 5533 5563 5556 5550 5543 5539 5533 5525 5523 5518 5515 5510 5506 5503 5499 5495
5488 5488 5488 5487 5487 5488 5490 5492 5494 5496 5500 5501 5497 5508 5505 5504 5506 5504 5502 5505 5506 5507 5507 5510 5512 5508 5508 5517 5546 5547 5544 5537 5530 5522 5520 5519 5509 5503 5498 5497 5493 5492 5489 5485
5475 5476 5472 5471 5475 5477 5481 5479 5481 5484 5487 5487 5487 5499 5513 5493 5493 5492 5491 5491 5492 5488 5493 5497 5496 5502 5509 5530 5538 5534 5529 5522 5513 5506 5501 5496 5490 5486 5483 5481 5476 5469 5463 5461
5461 5458 5460 5461 5463 5462 5462 5463 5467 5469 5475 5473 5480 5487 5485 5484 5484 5484 5481 5479 5480 5472 5481 5475 5481 5500 5520 5523 5520 5520 5514 5506 5496 5484 5479 5476 5474 5471 5470 5465 5459 5455 5450 5447
5449 5448 5447 5440 5442 5445 5447 5451 5456 5462 5464 5473 5473 5475 5472 5469 5475 5477 5473 5473 5466 5469 5464 5470 5484 5486 5504 5502 5498 5497 5493 5487 5480 5474 5468 5464 5461 5454 5450 5448 5448 5444 5441 5437
5451 5439 5429 5428 5426 5425 5435 5443 5446 5453 5463 5466 5466 5463 5464 5454 5457 5463 5451 5453 5450 5455 5453 5458 5470 5474 5485 5484 5478 5475 5471 5466 5461 5458 5454 5452 5448 5443 5438 5435 5432 5431 5429 5426
5432 5422 5417 5424 5414 5425 5437 5452 5442 5448 5459 5451 5448 5446 5442 5437 5440 5443 5444 5441 5445 5437 5443 5456 5452 5464 5467 5463 5460 5453 5450 5449 5448 5445 5440 5436 5431 5427 5424 5421 5422 5421 5419 5417
5417 5415 5414 5424 5417 5438 5459 5467 5465 5455 5455 5444 5439 5430 5434 5431 5428 5429 5431 5428 5426 5428 5439 5434 5439 5448 5446 5444 5442 5439 5438 5437 5430 5425 5423 5419 5413 5413 5412 5409 5408 5406 5405 5404
5410 5411 5426 5428 5443 5441 5445 5447 5442 5439 5441 5433 5424 5419 5424 5417 5415 5414 5412 5406 5416 5431 5426 5427 5428 5433 5431 5428 5428 5424 5422 5419 5416 5415 5409 5406 5404 5401 5399 5395 5392 5390 5389 5386
5406 5406 5424 5437 5433 5430 5431 5435 5432 5431 5427 5419 5418 5412 5416 5412 5414 5410 5414 5417 5414 5423 5415 5411 5416 5416 5414 5413 5410 5407 5405 5403 5402 5401 5400 5399 5395 5391 5388 5385 5379 5380 5374 5370
5398 5404 5421 5431 5436 5432 5433 5435 5424 5424 5422 5422 5415 5413 5417 5399 5406 5406 5410 5409 5419 5415 5403 5400 5404 5403 5402 5398 5395 5392 5390 5390 5389 5387 5385 5383 5381 5374 5367 5369 5370 5365 5360 5352